Boston, MA

7:24 PM EDT on May 24, 2018 (GMT -0400)
Logan International

Weather History for KBOS - April, 2014

Change the Weather History Date:

Monday, April 7, 2014

  Actual Average Record
Temperature  
Mean Temperature 49 °F 45 °F  
Max Temperature 59 °F 53 °F 90 °F (2010)
Min Temperature 38 °F 38 °F 16 °F (1982)
Degree Days  
Heating Degree Days 16 20  
Month to date heating degree days 145 147  
Since 1 July heating degree days 5263 5018  
Cooling Degree Days 0 0  
Month to date cooling degree days 0 0  
Year to date cooling degree days 0 0  
Moisture  
Dew Point 30 °F    
Average Humidity 59    
Maximum Humidity 89    
Minimum Humidity 28    
Precipitation  
Precipitation 0.04 in 0.13 in 1.24 in (1901)
Month to date precipitation 0.53 0.95  
Year to date precipitation 12.38 11.88  
Snow  
Snow 0.00 in 0.10 in 4.00 in (1893)
Month to date snowfall 0.0 0.8  
Since 1 July snowfall 58.6 42.7  
Snow Depth T in    
Sea Level Pressure  
Sea Level Pressure 30.14 in    
Wind  
Wind Speed 8 mph (SE)    
Max Wind Speed 17 mph    
Max Gust Speed 21 mph    
Visibility 9 miles    
Events Rain    
T = Trace of Precipitation, MM = Missing Value Source: NWS Daily Summary

Daily Weather History Graph

Daily Weather History Graph

Search for Another Location

Airport or City:

Astronomy

Apr. 07, 2014 Rise Set
Actual Time 6:16 AM EDT 7:16 PM EDT
Civil Twilight 5:47 AM EDT 7:45 PM EDT
Nautical Twilight 5:13 AM EDT 8:19 PM EDT
Astronomical Twilight 4:37 AM EDT 8:55 PM EDT
Moon 12:06 PM EDT (4/7) 1:55 AM EDT (4/7)
Length of Visible Light 13h 57m
Length of Day
13h 00m
First Quarter, 53% of the Moon is Illuminated
Apr 7
First Quarter
Apr 15
Full
Apr 22
Last Quarter
Apr 29
New
May 6
First Quarter

Hourly Weather History & Observations

Time (EDT) Temp. Windchill Dew Point Humidity Pressure Visibility Wind Dir Wind Speed Gust Speed Precip Events Conditions
12:54 AM 44.1 °F 41.5 °F 27.0 °F 51% 30.19 in 10.0 mi SSW 4.6 mph - N/A   Clear
1:54 AM 42.1 °F 39.2 °F 27.0 °F 55% 30.18 in 10.0 mi SSW 4.6 mph - N/A   Mostly Cloudy
2:54 AM 42.1 °F - 27.0 °F 55% 30.19 in 10.0 mi Calm Calm - N/A   Mostly Cloudy
3:54 AM 41.0 °F 38.0 °F 28.0 °F 60% 30.19 in 10.0 mi South 4.6 mph - N/A   Mostly Cloudy
4:54 AM 39.9 °F 37.8 °F 27.0 °F 60% 30.20 in 10.0 mi South 3.5 mph - N/A   Mostly Cloudy
5:54 AM 39.9 °F - 30.0 °F 68% 30.21 in 10.0 mi Calm Calm - N/A   Scattered Clouds
6:54 AM 39.0 °F 36.8 °F 28.0 °F 65% 30.23 in 10.0 mi South 3.5 mph - N/A   Mostly Cloudy
7:54 AM 43.0 °F 41.3 °F 30.0 °F 60% 30.22 in 10.0 mi SSE 3.5 mph - N/A   Scattered Clouds
8:54 AM 48.9 °F - 26.1 °F 41% 30.24 in 10.0 mi SSW 3.5 mph - N/A   Overcast
9:54 AM 52.0 °F - 26.1 °F 37% 30.25 in 10.0 mi SSE 4.6 mph - N/A   Overcast
10:54 AM 53.1 °F - 28.0 °F 38% 30.23 in 10.0 mi ENE 6.9 mph - N/A   Overcast
11:54 AM 52.0 °F - 28.0 °F 40% 30.22 in 10.0 mi East 9.2 mph - N/A   Overcast
12:54 PM 50.0 °F - 32.0 °F 50% 30.21 in 10.0 mi East 9.2 mph - N/A   Overcast
1:54 PM 54.0 °F - 33.1 °F 45% 30.18 in 10.0 mi East 3.5 mph - N/A   Overcast
2:54 PM 57.0 °F - 25.0 °F 29% 30.15 in 10.0 mi South 13.8 mph - N/A   Overcast
3:54 PM 57.0 °F - 26.1 °F 30% 30.12 in 10.0 mi South 10.4 mph - N/A   Overcast
4:54 PM 52.0 °F - 24.1 °F 34% 30.12 in 10.0 mi SSE 15.0 mph - N/A   Overcast
5:54 PM 50.0 °F - 26.1 °F 39% 30.11 in 10.0 mi SSE 6.9 mph - N/A   Overcast
6:54 PM 48.9 °F - 28.0 °F 44% 30.11 in 10.0 mi SE 10.4 mph - N/A   Overcast
7:54 PM 46.9 °F - 33.1 °F 59% 30.08 in 10.0 mi ESE 9.2 mph - N/A   Overcast
8:54 PM 45.0 °F 38.9 °F 34.0 °F 65% 30.05 in 10.0 mi ESE 12.7 mph - N/A   Overcast
9:54 PM 45.0 °F 40.1 °F 34.0 °F 65% 30.03 in 10.0 mi ESE 9.2 mph - 0.00 in Rain Light Rain
10:54 PM 43.0 °F 37.2 °F 39.0 °F 86% 29.98 in 8.0 mi ESE 10.4 mph - 0.01 in Rain Light Rain
11:36 PM 42.8 °F 35.4 °F 39.2 °F 87% 29.96 in 5.0 mi ESE 15.0 mph - 0.01 in Rain Light Rain
11:47 PM 42.8 °F 36.2 °F 39.2 °F 87% 29.94 in 2.5 mi East 12.7 mph - 0.02 in Rain Light Rain
11:54 PM 43.0 °F 36.0 °F 39.9 °F 89% 29.93 in 2.5 mi East 13.8 mph - 0.02 in Rain Light Rain